EW7070 Weather Reports


Display with metric or nautical units.
time (UTC)temp
F
wind
direction
speed
MPH
gust
MPH
rain 1hr
in
rain 24hr
in
rain mn
in
humidity
%
barometer
mb
20200702155649 52 258 0.0 0.0 0.00 0.00 0.00 69 1019.2
20200702155139 53 270 0.0 0.0 0.00 0.00 0.00 70 1019.3
20200702154620 52 357 0.0 0.0 0.00 0.00 0.00 71 1019.2
20200702154112 51 253 0.0 0.0 0.00 0.00 0.00 70 1019.6
20200702153614 51 246 0.0 0.0 0.00 0.00 0.00 70 1019.6
20200702153109 51 221 0.0 0.0 0.00 0.00 0.00 72 1019.6
20200702152518 51 267 0.0 0.0 0.00 0.00 0.00 74 1019.7
20200702152013 51 246 0.0 0.0 0.00 0.00 0.00 73 1019.7
20200702151510 51 246 0.0 0.0 0.00 0.00 0.00 73 1019.8
20200702150942 52 251 0.0 0.0 0.00 0.00 0.00 72 1019.8
20200702150440 52 239 0.0 0.0 0.00 0.00 0.00 76 1019.8
20200702145852 52 239 0.0 0.0 0.00 0.00 0.00 75 1019.9
20200702145323 51 244 0.0 0.0 0.00 0.00 0.00 77 1019.9
20200702144814 51 244 0.0 0.0 0.00 0.00 0.00 78 1019.9
20200702144252 51 244 0.0 0.0 0.00 0.00 0.00 78 1020.1
20200702143745 51 262 0.0 0.0 0.00 0.00 0.00 78 1020.1
20200702143227 51 262 0.0 0.0 0.00 0.00 0.00 77 1020.1
20200702142719 51 252 0.0 0.0 0.00 0.00 0.00 78 1020.2
20200702142216 51 253 0.0 0.0 0.00 0.00 0.00 79 1020.2
20200702141714 51 271 0.0 0.0 0.00 0.00 0.00 80 1020.2
20200702141136 51 272 0.0 0.0 0.00 0.00 0.00 80 1020.2
20200702140625 51 279 0.0 0.0 0.00 0.00 0.00 81 1020.2
20200702140114 51 217 0.0 0.0 0.00 0.00 0.00 80 1020.2
20200702140100 50 210 0.0 0.0 0.00 0.00 0.00 81 1020.2
20200702140041 51 210 0.0 0.0 0.00 0.00 0.00 81 1020.2
20200702134454 50 210 0.0 0.0 0.00 0.00 0.00 83 1020.2
20200702133935 50 210 0.0 0.0 0.00 0.00 0.00 82 1020.2
20200702133422 50 205 0.0 0.0 0.00 0.00 0.00 82 1020.2
20200702132850 50 205 0.0 0.0 0.00 0.00 0.00 82 1020.3
20200702132326 50 250 0.0 0.0 0.00 0.00 0.00 82 1020.3
20200702131819 50 234 0.0 0.0 0.00 0.00 0.00 84 1020.3
20200702131306 50 216 0.0 0.0 0.00 0.00 0.00 83 1020.2
20200702130811 50 215 0.0 0.0 0.00 0.00 0.00 83 1020.2
20200702130219 49 216 0.0 0.0 0.00 0.00 0.00 84 1020.2
20200702125653 49 241 0.0 0.0 0.00 0.00 0.00 84 1020.1
20200702125107 49 241 0.0 0.0 0.00 0.00 0.00 84 1020.1
20200702124516 49 265 0.0 0.0 0.00 0.00 0.00 85 1020.2
20200702123954 49 265 0.0 0.0 0.00 0.00 0.00 85 1020.2
20200702123454 49 265 0.0 0.0 0.00 0.00 0.00 85 1020.2
20200702122932 49 265 0.0 0.0 0.00 0.00 0.00 85 1020.2
20200702122427 49 265 0.0 0.0 0.00 0.00 0.00 85 1020.2
20200702121917 49 265 0.0 0.0 0.00 0.00 0.00 85 1020.2
20200702121407 49 265 0.0 0.0 0.00 0.00 0.00 86 1020.1
20200702120853 48 265 0.0 0.0 0.00 0.00 0.00 86 1020.1
20200702120348 48 253 0.0 0.0 0.00 0.00 0.00 85 1020.1
20200702115831 48 266 0.0 0.0 0.00 0.00 0.00 85 1020.0
20200702115330 48 266 0.0 0.0 0.00 0.00 0.00 86 1020.0
20200702114810 48 266 0.0 0.0 0.00 0.01 0.00 87 1020.0
20200702114311 48 266 0.0 0.0 0.00 0.01 0.00 86 1019.7
20200702113748 48 266 0.0 0.0 0.00 0.01 0.00 86 1019.7
20200702113248 48 266 0.0 0.0 0.00 0.02 0.00 86 1019.7
20200702112701 48 266 0.0 0.0 0.00 0.02 0.00 86 1019.6
20200702112125 48 266 0.0 0.0 0.00 0.03 0.00 87 1019.6
20200702111543 48 266 0.0 0.0 0.00 0.04 0.00 87 1019.6
20200702111012 48 266 0.0 0.0 0.00 0.05 0.00 87 1019.6
20200702110459 48 266 0.0 0.0 0.00 0.06 0.00 87 1019.6
20200702105955 48 266 0.0 0.0 0.00 0.06 0.00 87 1019.6
20200702105444 48 267 0.0 0.0 0.00 0.06 0.00 87 1019.5
20200702104942 48 267 0.0 0.0 0.00 0.07 0.00 86 1019.5
20200702104405 48 267 0.0 0.0 0.00 0.08 0.00 86 1019.3
20200702103821 48 267 0.0 0.0 0.00 0.09 0.00 87 1019.3
20200702103310 48 265 0.0 0.0 0.00 0.09 0.00 87 1019.3
20200702102721 48 265 0.0 0.0 0.00 0.09 0.00 87 1019.1
20200702102202 48 265 0.0 0.0 0.00 0.09 0.00 87 1019.1
20200702101617 48 265 0.0 0.0 0.00 0.10 0.00 87 1019.1
20200702101045 48 265 0.0 0.0 0.00 0.10 0.00 87 1019.0
20200702100505 48 265 0.0 0.0 0.00 0.11 0.00 87 1019.0
20200702095933 48 265 0.0 0.0 0.00 0.11 0.00 87 1018.8
20200702095406 48 265 0.0 0.0 0.00 0.11 0.00 87 1018.8
20200702094851 48 265 0.0 0.0 0.00 0.11 0.00 87 1018.8
20200702094351 49 265 0.0 0.0 0.00 0.11 0.00 87 1018.6
20200702093815 49 265 0.0 0.0 0.00 0.11 0.00 86 1018.6
20200702093232 49 265 0.0 0.0 0.00 0.11 0.00 86 1018.6
20200702092717 49 265 0.0 0.0 0.00 0.11 0.00 86 1018.4
20200702092212 49 273 0.0 0.0 0.00 0.11 0.00 87 1018.4
20200702091115 49 273 0.0 0.0 0.00 0.11 0.00 87 1018.1
20200702090547 49 273 0.0 0.0 0.00 0.11 0.00 87 1018.1
20200702085950 49 273 0.0 0.0 0.00 0.11 0.00 87 1018.1
20200702085451 49 273 0.0 0.0 0.00 0.11 0.00 87 1017.7
20200702084922 49 273 0.0 0.0 0.00 0.11 0.00 87 1017.7
20200702084350 49 273 0.0 0.0 0.00 0.11 0.00 87 1017.5
20200702083817 49 273 0.0 0.0 0.00 0.11 0.00 88 1017.5
20200702083243 49 273 0.0 0.0 0.00 0.11 0.00 88 1017.5
20200702082726 49 273 0.0 0.0 0.00 0.11 0.00 88 1017.5
20200702082212 49 273 0.0 0.0 0.00 0.11 0.00 88 1017.5
20200702081639 49 273 0.0 0.0 0.00 0.11 0.00 87 1017.5
20200702081103 49 273 0.0 0.0 0.00 0.11 0.00 87 1017.0
20200702080535 49 273 0.0 0.0 0.00 0.11 0.00 87 1017.0
20200702080010 49 273 0.0 0.0 0.00 0.11 0.00 87 1017.0
20200702075446 49 273 0.0 0.0 0.00 0.11 0.00 86 1017.0
20200702074908 49 273 0.0 0.0 0.00 0.11 0.00 86 1017.0
20200702074338 49 273 0.0 0.0 0.00 0.11 0.00 87 1016.9
20200702073818 49 273 0.0 0.0 0.00 0.11 0.00 86 1016.9
20200702073246 50 273 0.0 0.0 0.00 0.11 0.00 86 1016.9
20200702072720 50 273 0.0 0.0 0.00 0.11 0.00 86 1017.1
20200702072202 50 273 0.0 0.0 0.00 0.11 0.00 86 1017.1
20200702071627 50 273 0.0 0.0 0.00 0.11 0.00 85 1017.1
20200702071059 50 273 0.0 0.0 0.00 0.11 0.00 85 1017.1
20200702070528 50 273 0.0 0.0 0.00 0.11 0.00 85 1017.1
20200702070010 50 273 0.0 0.0 0.00 0.11 0.00 85 1017.0
20200702065437 50 273 0.0 0.0 0.00 0.11 0.00 85 1017.0
20200702064902 50 273 0.0 0.0 0.00 0.11 0.00 85 1017.0
20200702064344 50 273 0.0 0.0 0.00 0.11 0.00 85 1017.0
20200702063812 50 273 0.0 0.0 0.00 0.11 0.00 84 1017.0
20200702063238 50 273 0.0 0.0 0.00 0.11 0.00 84 1017.0
20200702062705 50 273 0.0 0.0 0.00 0.11 0.00 83 1017.0
20200702062127 50 273 0.0 0.0 0.00 0.11 0.00 83 1017.0
20200702061557 51 273 0.0 0.0 0.00 0.11 0.00 84 1017.0
20200702061024 51 273 0.0 0.0 0.00 0.11 0.00 83 1016.9
20200702060447 51 273 0.0 0.0 0.00 0.11 0.00 83 1016.9
20200702055904 51 273 0.0 0.0 0.00 0.11 0.00 84 1017.0
20200702055323 51 273 0.0 0.0 0.00 0.11 0.00 85 1017.0
20200702054808 51 273 0.0 0.0 0.00 0.11 0.00 85 1017.0
20200702054308 51 273 0.0 0.0 0.00 0.11 0.00 85 1017.0
20200702053731 51 273 0.0 0.0 0.00 0.11 0.00 85 1017.0
20200702053200 51 273 0.0 0.0 0.00 0.11 0.00 85 1017.0
20200702052634 51 273 0.0 0.0 0.00 0.11 0.00 84 1017.2
20200702052053 51 273 0.0 0.0 0.00 0.11 0.00 85 1017.2
20200702051513 51 288 0.0 0.0 0.00 0.11 0.00 85 1017.1
20200702050931 51 288 0.0 0.0 0.00 0.11 0.00 86 1017.1
20200702050421 51 288 0.0 0.0 0.00 0.11 0.00 87 1017.1
20200702045913 51 288 0.0 0.0 0.00 0.11 0.00 86 1017.0
20200702045303 51 288 0.0 0.0 0.00 0.11 0.00 85 1017.0
20200702044731 51 288 0.0 0.0 0.00 0.11 0.00 85 1017.0
20200702044216 51 288 0.0 0.0 0.00 0.11 0.00 85 1016.7
20200702043717 51 288 0.0 0.0 0.00 0.11 0.00 85 1016.6
20200702043139 51 288 0.0 0.0 0.00 0.11 0.00 85 1016.6
20200702042559 51 288 0.0 0.0 0.00 0.11 0.00 86 1016.5
20200702042100 51 288 0.0 0.0 0.00 0.11 0.00 86 1016.5
20200702041559 51 288 0.0 0.0 0.00 0.11 0.00 87 1016.5
20200702041039 51 288 0.0 0.0 0.00 0.11 0.00 88 1016.5
20200702040453 51 288 0.0 0.0 0.00 0.11 0.00 88 1016.5
20200702035859 51 288 0.0 0.0 0.00 0.11 0.00 88 1016.4
20200702035316 51 284 0.0 0.0 0.00 0.11 0.00 89 1016.4
20200702034745 51 283 0.0 0.0 0.00 0.11 0.00 89 1016.4
20200702034244 51 283 0.0 0.0 0.00 0.11 0.00 88 1016.6
20200702033730 51 283 0.0 0.0 0.00 0.11 0.00 87 1016.6
20200702033159 51 283 0.0 0.0 0.00 0.11 0.00 88 1016.6
20200702032612 50 283 0.0 0.0 0.00 0.11 0.00 88 1016.5
20200702032050 50 283 0.0 0.0 0.00 0.11 0.00 88 1016.5
20200702031542 50 283 0.0 0.0 0.00 0.11 0.00 88 1016.5
20200702031037 50 283 0.0 0.0 0.00 0.11 0.00 89 1016.7
20200702030506 50 283 0.0 0.0 0.00 0.11 0.00 88 1016.7
20200702025910 50 283 0.0 0.0 0.00 0.11 0.11 88 1016.6
20200702025352 50 283 0.0 0.0 0.00 0.11 0.11 89 1016.6
20200702024851 49 283 0.0 0.0 0.00 0.11 0.11 90 1016.6
20200702024332 49 283 0.0 0.0 0.00 0.11 0.11 91 1016.6
20200702023827 48 305 0.0 0.0 0.00 0.11 0.11 92 1016.6
20200702023259 48 305 0.0 0.0 0.00 0.11 0.11 92 1016.6
20200702022757 48 305 0.0 0.0 0.00 0.11 0.11 91 1016.5
20200702022200 49 305 0.0 0.0 0.00 0.11 0.11 91 1016.5
20200702021607 49 305 0.0 0.0 0.00 0.11 0.11 91 1016.5
20200702021030 49 305 0.0 0.0 0.00 0.11 0.11 91 1016.5
20200702020439 49 305 0.0 0.0 0.00 0.11 0.11 91 1016.5
20200702015914 49 305 0.0 0.0 0.00 0.11 0.11 90 1016.7
20200702015404 50 305 0.0 0.0 0.00 0.11 0.11 90 1016.7
20200702014841 50 305 0.0 0.0 0.00 0.11 0.11 90 1016.7
20200702014334 50 305 0.0 0.0 0.00 0.11 0.11 90 1016.6
20200702013750 50 305 0.0 0.0 0.00 0.11 0.11 90 1016.6
20200702013156 51 305 0.0 0.0 0.00 0.11 0.11 89 1016.6
20200702012610 51 305 0.0 0.0 0.00 0.11 0.11 89 1016.8
20200702012020 51 305 0.0 0.0 0.00 0.11 0.11 89 1016.9
20200702011432 51 305 0.0 0.0 0.00 0.11 0.11 88 1017.0
20200702010840 52 305 0.0 0.0 0.00 0.11 0.11 88 1017.0
20200702010247 52 305 0.0 0.0 0.00 0.11 0.11 87 1017.0
20200702005716 52 305 0.0 0.0 0.00 0.11 0.11 86 1017.0
20200702005132 53 305 0.0 0.0 0.00 0.11 0.11 85 1017.0
20200702004542 53 305 0.0 0.0 0.00 0.11 0.11 84 1016.6
20200702004430 53 305 0.0 0.0 0.00 0.11 0.11 83 1016.6
20200702004422 53 305 0.0 0.0 0.00 0.11 0.11 83 1016.6
20200702004316 53 305 0.0 0.0 0.00 0.11 0.11 83 1016.6
20200702002922 53 305 0.0 0.0 0.00 0.11 0.11 83 1016.6
20200702002228 53 277 0.0 0.0 0.00 0.11 0.11 84 1016.6
20200702001723 53 272 0.0 0.0 0.00 0.11 0.11 84 1016.6
20200702001137 53 272 0.0 0.0 0.00 0.11 0.11 84 1016.4
20200702000555 53 272 0.0 0.0 0.00 0.11 0.11 85 1016.4
20200702000009 53 250 0.0 0.0 0.00 0.11 0.11 85 1016.2
20200701235434 53 250 0.0 0.0 0.00 0.11 0.11 85 1016.2
20200701234836 53 248 0.0 0.0 0.00 0.11 0.11 85 1016.2
20200701234324 53 250 0.0 0.0 0.00 0.11 0.11 85 1016.2
20200701233823 53 253 0.0 0.0 0.00 0.11 0.11 86 1016.2
20200701233305 53 265 0.0 0.0 0.00 0.11 0.11 86 1016.2
20200701232722 53 259 0.0 0.0 0.00 0.11 0.11 86 1016.3
20200701232211 53 263 0.0 0.0 0.00 0.11 0.11 86 1016.3
20200701231700 54 281 0.0 0.0 0.00 0.11 0.11 86 1016.3
20200701231110 54 248 0.0 0.0 0.00 0.11 0.11 86 1016.2
20200701230524 54 248 0.0 0.0 0.00 0.11 0.11 86 1016.2
20200701225937 54 248 0.0 0.0 0.00 0.11 0.11 86 1015.9
20200701225346 54 322 0.0 0.0 0.00 0.11 0.11 86 1015.9
20200701224815 54 322 0.0 0.0 0.00 0.11 0.11 86 1015.9
20200701224247 54 322 0.0 0.0 0.00 0.11 0.11 85 1015.8
20200701223712 54 322 0.0 0.0 0.00 0.11 0.11 85 1015.8
20200701223150 54 213 0.0 0.0 0.00 0.11 0.11 85 1015.8
20200701222624 55 213 0.0 0.0 0.00 0.11 0.11 84 1015.7
20200701222145 55 213 0.0 0.0 0.00 0.11 0.11 83 1015.7
20200701221503 55 213 0.0 0.0 0.00 0.11 0.11 83 1015.5
20200701220917 55 213 0.0 0.0 0.00 0.11 0.11 81 1015.5
20200701220348 55 213 0.0 0.0 0.00 0.11 0.11 81 1015.5
20200701215821 55 213 0.0 0.0 0.00 0.11 0.11 81 1015.4
20200701215252 55 213 0.0 0.0 0.00 0.11 0.11 81 1015.4
20200701214709 55 206 0.0 0.0 0.00 0.11 0.11 81 1015.4
20200701214135 55 293 0.0 0.0 0.00 0.11 0.11 80 1015.2
20200701213627 55 293 0.0 0.0 0.00 0.11 0.11 80 1015.2
20200701213121 55 302 0.0 0.0 0.00 0.11 0.11 80 1015.2
20200701212550 55 248 0.0 0.0 0.00 0.11 0.11 80 1014.9
20200701212026 55 304 0.0 0.0 0.00 0.11 0.11 80 1014.9
20200701211511 55 304 0.0 0.0 0.00 0.11 0.11 80 1014.9
20200701211011 56 304 0.0 0.0 0.00 0.11 0.11 80 1014.5
20200701210508 56 307 0.0 0.0 0.00 0.11 0.11 81 1014.5
20200701210011 56 287 0.0 0.0 0.00 0.11 0.11 80 1014.4
20200701205436 56 287 0.0 0.0 0.00 0.11 0.11 81 1014.4
20200701204901 56 287 0.0 0.0 0.00 0.11 0.11 79 1014.4
20200701204351 56 287 0.0 0.0 0.00 0.11 0.11 79 1014.0
20200701203833 56 287 0.0 0.0 0.00 0.11 0.11 78 1014.0
20200701203304 56 287 0.0 0.0 0.00 0.11 0.11 78 1014.0
20200701202737 56 287 0.0 0.0 0.00 0.11 0.11 78 1013.7
20200701202219 56 287 0.0 0.0 0.00 0.11 0.11 77 1013.7
20200701201644 56 287 0.0 0.0 0.00 0.11 0.11 77 1013.7
20200701201112 56 287 0.0 0.0 0.00 0.11 0.11 77 1013.4
20200701200547 56 287 0.0 0.0 0.00 0.11 0.11 79 1013.4
20200701200048 56 287 0.0 0.0 0.00 0.11 0.11 78 1013.4
20200701195551 56 287 0.0 0.0 0.00 0.11 0.11 78 1013.2
20200701195017 56 287 0.0 0.0 0.00 0.11 0.11 78 1013.2
20200701194439 56 225 0.0 0.0 0.00 0.11 0.11 78 1013.0
20200701193929 56 256 0.0 0.0 0.00 0.11 0.11 78 1013.0
20200701193353 56 218 0.0 0.0 0.00 0.11 0.11 78 1013.0
20200701192825 56 218 0.0 0.0 0.00 0.11 0.11 78 1012.7
20200701192253 56 218 0.0 0.0 0.00 0.11 0.11 78 1012.7
20200701191720 56 218 0.0 0.0 0.00 0.11 0.11 78 1012.7
20200701191206 56 218 0.0 0.0 0.00 0.11 0.11 78 1012.4
20200701190636 56 218 0.0 0.0 0.00 0.11 0.11 78 1012.4
20200701190059 56 217 0.0 0.0 0.00 0.11 0.11 77 1012.4
20200701185528 57 293 0.0 0.0 0.00 0.11 0.11 78 1012.3
20200701185020 57 251 0.0 0.0 0.00 0.11 0.11 78 1012.3
20200701184447 57 245 0.0 0.0 0.00 0.11 0.11 78 1012.1
20200701183915 57 252 0.0 0.0 0.00 0.11 0.11 78 1012.1
20200701183354 57 247 0.0 0.0 0.00 0.11 0.11 78 1012.1
20200701182827 57 287 0.0 0.0 0.00 0.11 0.11 78 1012.0
20200701182335 56 243 0.0 0.0 0.00 0.11 0.11 80 1012.0
20200701181837 56 234 0.0 0.0 0.00 0.11 0.11 81 1011.9
20200701181305 56 247 0.0 0.0 0.00 0.11 0.11 80 1011.8
20200701180807 56 279 0.0 0.0 0.00 0.11 0.11 80 1011.8
20200701180248 57 227 0.0 0.0 0.00 0.11 0.11 80 1011.8
20200701175749 57 250 0.0 0.0 0.00 0.11 0.11 79 1011.6
20200701175224 57 242 0.0 0.0 0.00 0.11 0.11 79 1011.6
20200701174743 56 199 0.0 0.0 0.00 0.11 0.11 80 1011.6
20200701174225 56 242 0.0 0.0 0.00 0.12 0.11 79 1011.5
20200701173712 57 207 0.0 0.0 0.00 0.12 0.11 78 1011.5
20200701173142 58 248 0.0 0.0 0.00 0.12 0.11 77 1011.5
20200701172709 58 281 0.0 0.0 0.00 0.12 0.11 76 1011.3
20200701172131 58 264 0.0 0.0 0.00 0.13 0.11 76 1011.3
20200701171633 58 247 0.0 0.0 0.00 0.13 0.11 77 1011.3
20200701171120 58 241 0.0 0.0 0.00 0.13 0.11 79 1011.3
20200701170607 57 244 0.0 0.0 0.00 0.14 0.11 78 1011.3
20200701170106 57 248 0.0 0.0 0.00 0.17 0.11 78 1011.3
20200701165556 57 237 0.0 0.0 0.00 0.20 0.11 79 1011.6
20200701165058 57 250 0.0 0.0 0.00 0.20 0.11 78 1011.6
20200701164520 57 243 0.0 0.0 0.00 0.22 0.11 78 1011.7
20200701163945 57 260 0.0 0.0 0.00 0.23 0.11 78 1011.7
20200701163444 57 244 0.0 0.0 0.00 0.25 0.11 77 1011.7
20200701162948 57 256 0.0 0.0 0.00 0.26 0.11 76 1011.6
20200701162432 58 242 0.0 0.0 0.00 0.28 0.11 77 1011.6
20200701161933 58 258 0.0 0.0 0.00 0.28 0.11 79 1011.6
20200701161406 57 265 0.0 0.0 0.00 0.31 0.11 77 1011.8
20200701160903 57 246 0.0 0.0 0.00 0.32 0.11 77 1011.8
20200701160359 57 253 0.0 0.0 0.00 0.33 0.11 78 1011.8